Regional Weather Roundup
Issued by NWS

Home | Current Version | Previous Version | Text Only | Print | Product List | Glossary Off
Versions: 1 2 3 4 5 6 7 8 9 10 11 12 13 14 15 16 17 18 19 20 21 22 23 24 25 26 27 28 29 30 31 32 33 34 35 36 37 38 39 40 41 42 43 44 45 46 47 48 49 50

000
ASUS43 KLOT 202103
RWRIL

ILLINOIS REGIONAL WEATHER ROUNDUP
NATIONAL WEATHER SERVICE CHICAGO/ROMEOVILLE IL
400 PM CDT FRI APR 20 2018

NOTE: "FAIR" INDICATES FEW OR NO CLOUDS BELOW 12,000 FEET WITH NO
SIGNIFICANT WEATHER AND/OR OBSTRUCTIONS TO VISIBILITY.

* THESE STATIONS ARE NOT UNDER NWS QUALITY CONTROL. THEY ALSO MAY NOT
  REPORT WEATHER SUCH AS PRECIPITATION OR FOG.

ILZ001-002-007-009-015-016-024-202200-
NORTHWEST ILLINOIS

CITY           SKY/WX    TMP DP  RH WIND       PRES   REMARKS
MOLINE         FAIR      62  15  16 SE8       30.41F
STERLING*      FAIR      60  23  24 VRB6      30.44F
SAVANNA*       FAIR      59  20  21 W6        30.43F
$$

ILZ003-004-008-010-011-017-018-202200-
NORTH CENTRAL ILLINOIS

CITY           SKY/WX    TMP DP  RH WIND       PRES   REMARKS
ROCKFORD       FAIR      59  19  21 S7        30.46F
FREEPORT*      FAIR      58  22  25 CALM      30.46F
ROCHELLE*      FAIR      59  23  25 E3        30.45F
DE KALB*       FAIR      59  21  23 S3        30.45F
PERU*          FAIR      62  22  21 SE6       30.44F
$$

ILZ005-006-012>014-019>023-202200-
NORTHEAST ILLINOIS

CITY           SKY/WX    TMP DP  RH WIND       PRES   REMARKS
CHICAGO-OHARE  FAIR      61  21  21 E8        30.44F
CHICAGO-MIDWAY FAIR      58  14  17 E14       30.46F
AURORA         FAIR      60  18  19 VRB3      30.45F
LANSING*       FAIR      56  26  31 NE6       30.47S
JOLIET*        FAIR      62  22  21 CALM      30.44F
WAUKEGAN       FAIR      51  25  36 SE10      30.46F
DUPAGE AIRPORT FAIR      60  13  15 VRB5      30.44F
KANKAKEE*      FAIR      61  22  22 NE7       30.45F
WHEELING       FAIR      60  20  21 E8        30.47F
MORRIS*        FAIR      61  21  21 CALM      30.44F
ROMEOVILLE*    FAIR      60  19  20 CALM      30.44F
NORTHERLY ISL    N/A     45  32  60 NE3         N/A
$$

LMZ740>746-202200-
SOUTHERN LAKE MICHIGAN

STATION/POSITION SKY/WX   TEMP    WIND        PRES    VSBY  WAVE
                          AIR SEA DIR/SP/G                  HT/PER
                          (F)     (DEG/KT/KT) (MB)    (MI)  (FT/S)
HARRISON CRIB              46      90/  8/  9   N/A
BURNHAM HARBOR             45      60/  2/  4   N/A
CALUMET HARBOR             42      50/  8/  9 1031.6S
BURNS HARBOR               44      50/  6/  7 1032.8S
MICHIGAN CITY              40      10/  6/  7   N/A
$$

ILZ025>027-034>036-040-047-049-050-058-095>099-202200-
WEST-CENTRAL ILLINOIS

CITY           SKY/WX    TMP DP  RH WIND       PRES   REMARKS
QUINCY         PTSUNNY   59  16  18 SE13      30.39F
GALESBURG*     FAIR      63  21  19 SE7       30.43F
MACOMB*        PTSUNNY   60  17  18 SE14      30.44F
JACKSONVILLE*  PTSUNNY   60  22  22 E12       30.41F
PITTSFIELD*    CLOUDY    60  21  22 SE8       30.41F
$$

ILZ028>032-037-038-041>044-048-051>054-059>061-202200-
CENTRAL ILLINOIS

CITY           SKY/WX    TMP DP  RH WIND       PRES   REMARKS
PONTIAC        FAIR      60  20  20 NW3       30.45F
BLOOMINGTON    FAIR      61  20  20 E10       30.44F
DECATUR        FAIR      62  18  18 E13       30.42F
PEORIA         FAIR      61  20  20 SE9       30.42F
LACON*         FAIR      61  23  23 E8        30.42F
LINCOLN*       FAIR      63  21  20 E7        30.42F
SPRINGFIELD    FAIR      63  19  18 E9        30.41F
TAYLORVILLE    FAIR      62  18  18 E10G16    30.41F
$$

ILZ033-039-045-046-055>057-062-063-202200-
EAST-CENTRAL ILLINOIS

CITY           SKY/WX    TMP DP  RH WIND       PRES   REMARKS
CHAMPAIGN      FAIR      60  19  20 E8        30.44F
DANVILLE*      FAIR      60  20  21 E8        30.42S
RANTOUL*       FAIR      62  21  20 E5        30.44S
MATTOON        FAIR      61  21  21 NE10      30.42F
PARIS*         FAIR      60  27  27 E3        30.43F
$$

ILZ079-100>102-202200-
SOUTHWEST ILLINOIS

CITY           SKY/WX    TMP DP  RH WIND       PRES   REMARKS
ALTON          PTSUNNY   63  28  27 E14       30.40F
BELLEVILLE     MOSUNNY   61  24  24 E8        30.38F
CAHOKIA*       CLOUDY    63  23  21 SE12      30.38F
SPARTA*        SUNNY     61  30  31 E8G17     30.39F
$$

ILZ064>066-069>071-074>076-080>082-084>086-088>090-092>094-202200-
SOUTH-CENTRAL ILLINOIS

CITY           SKY/WX    TMP DP  RH WIND       PRES   REMARKS
CARBONDALE     FAIR      63  24  22 SE12      30.38F
CAIRO*         FAIR      64  29  26 E8        30.36F
EFFINGHAM*     FAIR      61  28  28 E3        30.44F
MARION         MOSUNNY   63  16  16 SE10      30.40F
MT. VERNON     FAIR      62  24  23 E9        30.40F
CENTRALIA*     MOSUNNY   63  26  24 NE10      30.39F
SALEM*         FAIR      63  20  19 NE7       30.41F
METROPOLIS*    FAIR      66  24  19 E7        30.37F
$$

ILZ067-068-072-073-078-083-087-091-202200-
SOUTHEAST ILLINOIS

CITY           SKY/WX    TMP DP  RH WIND       PRES   REMARKS
LAWRENCEVILLE  FAIR      64  17  16 NE8       30.40F
FLORA*         FAIR      62  22  21 CALM      30.42S
FAIRFIELD*     FAIR      62  27  26 E8        30.40F
HARRISBURG*    FAIR      61  29  30 E5        30.40F
ROBINSON*      FAIR      62  24  23 NE3       30.42F
CARMI*         FAIR      63  26  25 NE3       30.39F
$$

ABBREVIATIONS USED IN REMARKS
   TC - TEMPERATURE IN CELSIUS
  WCI - WIND CHILL INDEX
   HX - HEAT INDEX
  VSB - VISIBILITY
$$





USA.gov is the U.S. government's official web portal to all federal, state and local government web resources and services.